Eggleston, Virginia
Current Conditions -  °F | °C
As of 1:15 AM on Thursday 23 Oct 2014 (Local Time) from KPSK Reporting Station
Broken Clouds Broken Clouds  
Wind Chill: 42°   Ceiling: 2000
Heat Index: 46°   Visibility: 10mi
Dew Point: 39°   Wind: 8mph
Humidity: 76%   Direction: 330°NNW
Pressure: 30.12"   Gusts: 22mph
Location:  37.29°N, 80.62°W
Report Text: KPSK 230515Z AUTO 33007G19KT 10SM BKN020 08/04 A3012 RMK AO2
Loading
Personal Weather Stations






























Interactive Weather Map
Tropical Storm Tracking
New forecast layout! Learn more

10-Day Weather Forecast

Advertisements
Track Severe Weather on mobile